sat.trackr.live / text

‹ back to catalog

2025-313H

NORAD 67255 · 2025-313H

PAYLOAD ACTIVE UNKNOWN

§ Identity

Operator
Country
TBD
Launch date
2025-12-28
Launch site
VOSTO
Launch vehicle
Mass (kg)
RCS (m²)

External: N2YO · Heavens-Above · Gunter

§ Orbital elements

Epoch: 2026-05-25T04:55:26.910048Z

Period
95.55 min
Inclination
97.2868°
Eccentricity
0.0069979
Mean motion
15.06994695 rev/d
Perigee alt
496.9 km
Apogee alt
593.8 km
Semi-major
6,923.5 km
B*
1.9043e-4
RAAN
214.3398°
Arg perigee
54.1489°
Mean anomaly
306.6212°
Rev number
2,219

§ Raw data

2025-313H1 67255U 25313H   26145.20517257  .00002952  00000+0  19043-3 0  99932 67255  97.2868 214.3398 0069979  54.1489 306.6212 15.06994695 22196

JSON: /api/v1/satellites/67255 · /tle

For live sub-satellite position, see the globe view (requires WebGL).

§ Visibility from observer

Set your observer location to see the next 7 days of passes ≥ 10°. The values pass through the URL so the page stays shareable.

No JS? Fill the form by hand. The geolocation button needs JavaScript.

§ Radio — SatNOGS DB

ModeDescriptionDownlinkUplink
FM Telemetry 436.740 MHz

1 transmitter · refreshed weekly from db.satnogs.org